Regional Weather Roundup
Issued by NWS

Home | Current Version | Previous Version | Graphics & Text | Print | Product List | Glossary On
Versions: 1 2 3 4 5 6 7 8 9 10 11 12 13 14 15 16 17 18 19 20 21 22 23 24 25 26 27 28 29 30 31 32 33 34 35 36 37 38 39 40 41 42 43 44 45 46 47 48 49 50
184
ASUS44 KJAN 201303
RWRMS

MISSISSIPPI HOURLY WEATHER ROUNDUP
NATIONAL WEATHER SERVICE JACKSON MS
800 AM CDT SAT SEP 20 2014

NOTE: "FAIR: INDICATES FEW OR NO CLOUDS BELOW 12,000 FEET WITH NO
SIGNIFICANT WEATHER AND/OR OBSTRUCTIONS TO VISIBILITY.

MSZ001>002-007>008-010>013-018>021-025>028-034>036-201400-
NORTHWEST MISSISSIPPI

CITY           SKY/WX    TMP DP  RH WIND       PRES   REMARKS
CLARKSDALE     FAIR      72  72 100 CALM      30.06R
CLEVELAND      FAIR      71  69  93 E3        30.03R
GREENWOOD      SUNNY     71  65  81 E5        30.04R
GREENVILLE     SUNNY     71  67  87 CALM      30.02R
GRENADA        FAIR      70  66  88 E8        30.06S
OLIVE BRANCH   SUNNY     70  70 100 SE8       30.08R
OXFORD         FAIR      68  64  88 SE8       30.09R
TUNICA         SUNNY     70  68  94 CALM      30.06R
$$

MSZ003>006-009-014>017-022>024-029>033-037>039-201400-
NORTHEAST MISSISSIPPI

CITY           SKY/WX    TMP DP  RH WIND       PRES   REMARKS
COLUMBUS AFB   SUNNY     70  67  88 SE7       30.09R
CORINTH        FAIR      68  66  94 SE5       30.09S
GOLDN TRIANGLE SUNNY     70  63  78 E9        30.09R
STARKVILLE     FAIR      70  64  83 E6        30.08R
TUPELO         SUNNY     71  65  81 SE7       30.09R
$$

MSZ040-058-201400-
CENTRAL MISSISSIPPI

CITY           SKY/WX    TMP DP  RH WIND       PRES   REMARKS
JACKSON INTL   SUNNY     72  68  87 CALM      30.03R
JACKSON HAWKNS SUNNY     72  68  87 SE5       30.03R
MERIDIAN KEY   SUNNY     70  66  87 E8        30.06R
MERIDIAN NAS   SUNNY     70  66  87 E6        30.07R
RAYMOND        FAIR      68  63  83 CALM      30.02S HAZE
VICKSBURG      SUNNY     69  68  96 CALM      30.02R
$$

MSZ059>079-201400-
SOUTH MISSISSIPPI

CITY           SKY/WX    TMP DP  RH WIND       PRES   REMARKS
BROOKHAVEN     FAIR      66  66 100 CALM      30.04R FOG
COLUMBIA       FAIR      70  68  94 CALM      30.01S
HATTIESBURG    SUNNY     71  68  90 CALM      30.04R
MCCOMB         SUNNY     72  67  84 NE3       30.02R
NATCHEZ        SUNNY     70  66  88 CALM      30.02R
PINE BELT      SUNNY     70  64  83 NE5       30.05R
$$

MSZ080>082-201400-
COASTAL MISSISSIPPI

CITY           SKY/WX    TMP DP  RH WIND       PRES   REMARKS
BILOXI         SUNNY     73  67  79 NE9       29.99R
PASCAGOULA     SUNNY     72  67  84 NE6       30.00R
GULFPORT       SUNNY     74  66  76 NE9       29.98R
$$



USA.gov is the U.S. government's official web portal to all federal, state and local government web resources and services.